Temperature
21 18 18 19 20 20 20 19 18 17 16 15 14 13 13 13 13 12 12 12 12 12 13 14 14 14 15 15 16 16 16 17 17 17 18 18 18 19 19 19 19 18 18 18
18 18 19 19 19 19 18 18 17 16 16 15 13 13 13 13 13 12 12 12 12 12 13 13 14 14 14 15 15 15 16 16 16 17 17 17 18 18 18 18 18 18 18 18
18 18 19 18 17 18 18 18 17 16 15 14 14 13 12 12 13 13 12 12 12 12 12 12 13 13 13 14 14 14 15 15 16 16 16 17 17 17 17 18 18 18 18 18
17 18 18 17 17 17 17 18 17 16 14 13 13 13 12 11 11 12 12 12 12 12 12 12 12 13 13 13 13 14 14 14 15 15 15 16 16 16 17 17 17 17 17 17
17 17 17 17 17 17 17 16 15 15 13 12 12 12 11 10 11 11 12 12 12 12 12 12 12 12 12 13 13 13 13 14 14 14 14 15 15 15 16 16 16 17 17 17
17 17 17 17 17 16 15 15 14 12 12 12 11 11 11 10 11 11 12 12 12 12 12 12 12 12 12 13 13 13 13 13 13 14 14 14 14 15 15 15 16 16 16 16
16 16 16 16 15 15 13 13 13 13 11 12 12 11 11 12 12 11 11 12 12 12 12 12 12 12 12 12 12 13 13 13 13 13 14 14 14 14 15 15 15 15 15 15
16 15 15 15 15 15 13 13 13 13 12 11 11 11 11 12 12 12 12 12 12 12 12 12 12 11 12 12 12 12 12 12 13 13 13 13 14 14 14 14 15 15 15 15
14 15 16 16 15 15 14 11 12 11 11 11 11 11 12 12 12 12 12 12 12 12 12 12 12 12 12 11 12 12 12 12 12 13 13 13 13 13 14 14 14 14 14 15
14 15 15 15 15 14 12 11 10 11 11 11 12 11 10 11 11 11 12 12 12 12 12 12 12 12 12 11 11 12 12 12 12 12 13 13 13 13 13 14 14 14 14 14
14 14 14 14 14 13 13 12 9 9 10 10 11 11 11 11 11 10 11 12 12 12 12 12 12 12 12 11 11 11 12 12 12 12 12 13 13 13 13 13 13 14 14 14
13 11 12 14 14 14 13 12 10 11 10 9 10 10 12 11 11 11 12 13 13 13 13 12 12 12 12 12 11 12 12 12 12 12 12 12 12 13 13 13 13 13 13 13
13 12 13 14 14 13 13 12 10 9 9 9 10 11 12 12 12 13 13 13 13 13 13 13 12 12 12 12 12 11 11 12 12 12 12 12 12 12 12 13 13 13 13 13
13 11 13 14 14 13 14 13 12 11 9 10 10 11 12 12 11 13 13 13 13 13 13 13 12 12 12 12 12 11 11 11 11 12 12 12 12 12 12 12 12 13 13 13
12 12 13 14 14 14 14 14 13 12 11 10 12 12 12 12 12 13 13 13 13 13 13 13 13 12 12 12 12 11 11 11 11 12 12 11 11 11 12 12 12 12 12 13
12 13 14 14 14 14 14 14 13 13 12 12 12 12 12 13 13 14 14 13 13 13 13 13 13 12 12 12 12 11 11 11 11 11 11 11 11 11 11 11 11 12 12 12
11 12 12 13 14 14 14 14 13 13 13 13 12 12 13 13 14 14 14 14 13 13 13 13 13 13 12 12 12 12 11 11 11 11 11 11 11 11 11 11 11 11 11 11
12 11 10 11 14 15 14 14 14 14 14 13 13 13 14 14 14 14 14 14 14 14 13 13 13 13 13 12 12 12 12 11 11 11 11 11 10 10 10 10 11 11 11 11
11 11 10 11 13 13 14 14 13 14 14 13 13 14 14 14 14 14 15 14 14 14 14 14 13 13 13 13 12 12 12 12 11 11 11 10 10 10 10 10 10 10 10 11
11 10 10 11 14 15 15 15 15 15 14 15 15 14 14 14 11 13 15 14 14 14 14 14 14 14 13 13 13 12 12 12 11 11 11 11 10 10 10 10 10 10 10 10
13 12 11 11 13 12 14 14 15 13 14 16 16 16 15 14 14 15 15 15 14 14 14 14 14 14 14 13 13 12 12 12 11 11 11 11 10 10 10 10 10 10 10 10
12 12 11 10 12 13 14 13 13 14 17 17 17 17 16 16 16 15 15 15 15 14 14 14 14 14 14 14 13 13 12 12 11 11 11 11 10 10 10 10 10 10 10 10
11 12 11 11 13 15 16 16 18 18 17 17 17 17 16 16 16 15 15 15 15 15 14 14 14 14 14 14 13 13 13 12 12 11 11 11 10 10 10 10 10 10 10 10
11 12 11 11 12 15 16 17 17 18 18 18 17 17 16 16 16 16 15 15 15 15 15 15 14 14 14 14 13 13 13 12 12 11 11 11 10 10 10 10 10 10 10 10
13 10 11 12 13 15 17 17 18 18 18 17 17 17 16 16 16 16 15 15 15 15 15 15 14 14 14 14 14 13 13 12 12 12 11 11 10 10 10 10 10 10 10 9
12 12 13 14 17 16 19 19 18 18 17 17 17 16 16 16 16 15 15 15 15 15 15 14 14 14 14 14 14 13 13 13 12 12 11 11 11 10 10 10 10 10 10 9
Wind_Speed
7 9 6 6 4 3 5 6 6 4 5 8 11 10 8 10 14 15 15 14 13 12 11 11 12 12 11 11 11 10 10 9 8 5 4 4 4 5 5 6 8 11 11 11
8 7 6 5 7 8 7 7 5 5 6 6 8 8 6 8 11 11 12 12 12 14 15 15 14 13 12 12 11 10 9 9 8 6 5 4 4 4 4 4 6 9 10 11
9 4 5 6 9 8 5 4 3 4 4 5 3 4 6 5 6 10 11 11 11 14 15 15 15 13 13 13 12 11 10 9 9 8 5 4 3 3 2 3 4 5 7 8
8 6 6 8 7 6 2 3 1 5 6 3 3 0 5 7 8 13 14 13 13 14 14 13 14 14 14 13 11 10 10 9 9 8 6 5 4 4 3 3 3 3 4 6
5 4 7 7 5 5 2 4 3 4 6 5 7 3 5 7 9 13 13 13 13 13 14 14 13 12 12 11 11 10 9 9 9 8 7 6 5 4 3 2 2 2 2 3
5 3 4 3 3 3 2 4 7 6 5 5 5 3 5 6 9 12 12 13 13 13 14 13 12 11 11 11 10 10 10 9 9 9 8 7 7 5 4 3 2 2 1 2
7 7 7 5 6 7 8 6 4 5 6 2 3 3 3 6 7 8 11 12 12 12 12 13 14 13 13 13 12 11 11 10 10 9 8 8 7 5 4 3 1 1 1 1
4 5 7 7 3 2 4 5 5 3 2 1 3 2 4 6 7 8 8 9 11 12 12 12 12 12 12 13 13 12 11 10 10 9 9 8 7 5 4 3 2 1 0 1
5 1 3 5 5 3 4 4 3 6 3 2 2 3 5 4 8 9 10 11 12 12 12 12 12 12 12 12 12 12 11 10 10 10 9 8 9 7 6 5 3 2 2 1
6 5 4 5 6 8 6 5 5 5 3 1 3 3 4 8 10 11 12 12 12 12 11 11 11 11 11 11 10 11 11 10 10 10 9 9 9 9 8 7 6 5 4 3
4 5 4 5 6 6 5 5 6 5 4 4 0 4 4 6 7 9 10 11 11 11 10 10 10 10 10 10 10 11 11 10 10 10 9 10 10 10 9 8 8 6 5 5
4 5 3 2 2 1 4 3 4 4 2 3 3 5 5 5 7 7 9 9 9 10 9 8 9 9 9 10 10 10 10 10 10 10 9 9 10 10 10 10 9 8 7 6
5 6 4 4 5 5 5 4 4 6 5 3 2 5 4 4 6 6 7 8 8 9 8 8 8 9 9 9 9 10 10 10 10 9 9 10 10 10 10 9 9 9 8 8
5 5 4 4 3 1 2 2 3 4 4 3 3 4 6 6 7 8 8 8 7 7 7 8 8 8 8 8 8 9 9 9 9 9 9 10 10 9 9 9 9 9 9 8
5 5 4 3 2 3 2 2 3 3 5 5 5 4 7 6 5 6 6 7 7 7 8 8 7 7 7 8 8 8 8 9 8 8 9 10 9 9 9 9 9 9 9 9
5 5 3 3 3 2 1 1 3 3 4 3 3 5 6 4 3 4 5 6 6 7 7 7 7 7 7 7 7 7 8 8 7 8 9 9 9 9 9 9 9 9 9 9
3 5 4 0 2 3 4 6 6 4 4 6 6 6 3 2 4 4 5 5 6 7 7 7 6 6 6 6 5 6 6 6 7 8 8 9 9 9 9 9 9 9 9 9
6 5 4 3 2 4 6 4 7 6 6 7 6 5 5 6 4 4 4 4 6 6 6 6 6 5 5 4 4 4 5 6 7 7 8 8 8 9 8 9 9 9 7 7
4 7 5 4 2 6 6 4 7 6 6 8 8 6 5 2 2 5 4 3 4 4 4 4 4 4 4 4 4 4 5 5 6 7 7 7 7 8 8 8 8 7 7 8
6 6 6 4 2 5 6 4 6 5 5 7 10 9 7 6 1 4 4 3 3 4 3 4 4 3 3 4 3 3 4 5 5 5 5 6 6 7 7 7 6 6 6 6
2 3 4 4 5 8 6 5 8 5 8 6 10 10 10 9 7 4 3 2 2 3 4 3 3 3 4 3 2 2 3 3 2 3 5 6 6 6 6 6 6 6 7 7
7 6 5 5 3 8 6 10 9 10 3 6 9 9 10 8 5 4 3 2 2 3 4 4 4 5 4 3 1 2 2 1 2 3 5 6 7 6 6 7 7 7 7 8
8 8 7 9 8 5 9 9 7 6 6 8 9 8 9 8 6 5 3 2 2 3 3 3 3 5 5 3 1 1 2 1 3 3 4 5 6 6 6 7 7 7 7 7
5 4 5 5 8 7 9 6 4 7 8 8 9 9 10 8 7 6 3 2 2 2 3 3 4 5 5 5 2 1 1 3 4 3 2 3 4 5 5 5 5 5 6 6
7 8 5 6 7 5 7 10 9 7 6 7 7 8 9 9 7 6 4 3 2 2 2 2 3 4 5 4 3 1 2 4 4 3 2 2 2 2 3 3 3 3 3 3
7 9 9 8 8 8 7 9 11 10 9 10 10 8 7 8 8 7 5 4 3 2 2 2 3 4 4 4 3 1 1 3 4 2 2 1 1 1 1 2 2 3 3 5
Wind_Direction
30 54 38 7 30 94 99 99 94 91 108 77 86 81 47 30 31 25 17 11 5 358 350 351 351 351 350 348 348 344 342 339 339 335 321 294 266 252 235 222 212 203 198 197
51 37 357 25 45 67 83 90 83 86 100 101 105 83 48 31 30 19 10 2 357 352 352 352 351 352 351 347 345 340 338 334 332 324 306 283 274 267 252 237 220 208 201 196
89 2 4 57 47 56 60 99 141 138 92 88 116 64 20 6 8 11 11 1 358 354 348 345 347 346 346 346 343 337 332 332 330 328 317 308 295 285 270 247 229 215 202 199
72 15 39 56 43 38 14 355 174 149 123 72 9 150 357 338 349 2 1 356 353 349 345 343 343 343 343 341 339 335 331 331 334 334 331 320 305 291 280 271 251 225 199 193
71 27 42 43 10 7 327 6 66 109 112 76 23 60 330 339 353 348 346 348 347 345 344 342 339 338 337 339 341 340 335 339 341 343 341 331 315 297 295 278 251 233 209 187
55 27 49 11 4 27 3 70 60 57 72 57 349 40 341 341 329 328 333 338 339 340 342 341 341 342 342 343 344 346 347 346 347 348 351 347 338 332 333 317 268 229 197 176
30 13 3 16 18 14 41 73 44 23 33 17 338 63 311 299 312 316 321 326 332 337 342 342 346 348 348 350 351 351 351 351 351 352 355 353 348 346 349 337 298 231 188 191
87 9 355 11 32 4 41 88 127 149 161 303 7 5 280 286 307 316 320 325 339 342 342 344 347 350 351 354 355 356 355 355 355 359 359 1 1 359 353 352 354 13 128 179
127 122 341 21 24 65 68 63 119 118 108 70 344 318 311 324 336 339 341 344 345 342 343 347 349 351 352 354 356 358 358 2 2 4 5 10 10 10 10 11 22 32 35 64
124 115 347 336 35 37 91 113 82 85 112 51 333 330 307 317 326 332 336 338 336 340 344 347 348 348 350 352 352 359 3 6 5 8 13 16 12 14 18 25 29 34 38 45
99 110 10 30 35 354 25 59 82 86 109 133 347 297 250 274 297 312 318 323 327 332 336 339 343 346 351 355 360 4 6 9 9 9 10 14 14 15 22 27 27 28 32 38
100 105 72 356 315 353 92 92 128 122 106 113 139 274 280 282 294 301 309 316 324 329 334 337 341 346 352 357 360 2 5 8 7 9 13 16 17 19 22 22 21 24 29 31
120 101 86 0 349 9 53 60 94 107 107 119 136 276 299 328 325 320 316 321 327 333 342 346 349 350 351 355 357 359 3 3 4 10 15 19 20 20 20 19 20 26 32 35
104 82 127 154 208 199 71 79 123 109 120 155 208 259 304 319 321 322 326 327 328 332 342 351 350 348 351 354 356 358 1 2 7 13 18 20 17 17 17 19 23 26 30 32
89 88 83 83 90 115 110 134 139 133 162 166 213 235 265 280 291 303 314 326 339 340 344 349 347 346 350 356 357 359 360 2 6 15 19 14 10 15 21 23 24 26 31 34
72 107 87 50 41 72 49 196 152 148 163 179 209 258 255 262 276 302 320 332 336 332 334 339 344 347 347 349 351 356 359 360 8 19 16 11 14 20 21 20 23 28 29 28
82 115 107 149 352 18 281 223 193 195 192 175 201 235 235 240 269 286 299 313 316 321 326 334 335 331 328 332 343 351 350 359 14 18 15 13 16 21 19 22 28 28 25 28
118 101 107 114 78 265 250 217 179 188 217 202 214 226 208 221 250 277 269 281 303 315 323 326 325 325 324 329 341 350 2 11 14 15 13 12 14 18 19 25 25 22 23 27
118 125 113 120 197 282 282 197 171 177 244 209 201 212 203 174 13 314 275 266 272 294 302 297 298 298 312 325 335 3 13 12 17 14 11 9 12 19 23 23 18 16 23 28
68 91 110 129 181 248 252 196 154 115 269 218 185 190 174 133 134 270 271 280 297 321 316 310 314 320 328 328 344 17 13 14 12 7 8 12 19 26 25 20 17 16 24 26
103 75 123 161 225 261 242 152 123 150 243 204 178 179 169 180 203 231 268 263 317 335 334 337 340 336 319 324 9 10 3 2 359 24 30 27 24 30 27 26 24 22 26 30
172 164 181 157 203 260 189 147 179 211 211 171 175 176 179 199 215 226 229 243 336 345 345 349 346 334 329 342 31 0 338 325 77 63 48 36 29 31 31 32 29 28 29 33
193 189 184 189 213 237 187 195 204 172 175 181 177 180 177 182 196 196 200 228 313 332 337 340 339 334 339 351 10 330 304 142 115 82 58 44 40 36 33 37 33 30 29 33
240 169 168 241 260 238 221 230 205 187 188 182 174 168 167 176 185 186 193 227 284 316 329 339 349 348 339 340 347 305 248 144 130 113 78 54 50 41 36 38 37 38 30 29
217 168 193 249 268 266 237 211 200 189 177 160 162 170 174 172 180 184 195 219 245 279 307 328 333 324 318 329 342 4 115 136 137 137 121 85 67 58 43 39 34 34 24 24
192 177 178 219 217 192 228 205 179 170 177 174 167 171 178 177 182 181 194 211 223 252 288 318 325 322 320 330 338 354 126 150 153 158 166 165 148 100 56 27 12 16 24 29
Height
1529 1537 1546 1544 1541 1541 1544 1550 1556 1559 1561 1565 1570 1573 1573 1571 1567 1565 1563 1560 1556 1554 1550 1546 1542 1538 1535 1531 1528 1525 1523 1521 1519 1517 1516 1515 1515 1516 1517 1518 1519 1522 1524 1526
1541 1549 1547 1543 1543 1544 1548 1555 1560 1562 1562 1567 1573 1575 1574 1572 1570 1569 1566 1562 1558 1553 1549 1545 1541 1537 1533 1529 1526 1524 1521 1519 1516 1514 1512 1511 1510 1510 1511 1512 1513 1516 1519 1521
1549 1552 1547 1547 1550 1551 1553 1556 1559 1562 1566 1568 1572 1577 1577 1574 1572 1569 1566 1563 1559 1555 1550 1545 1540 1536 1532 1528 1524 1521 1519 1516 1513 1511 1509 1507 1506 1505 1506 1507 1508 1510 1513 1515
1551 1551 1550 1552 1554 1554 1558 1554 1555 1559 1569 1578 1576 1583 1581 1576 1573 1569 1566 1563 1559 1555 1551 1546 1541 1536 1531 1527 1523 1520 1517 1514 1511 1509 1506 1504 1503 1502 1502 1503 1503 1505 1507 1510
1555 1554 1555 1556 1557 1555 1556 1555 1556 1561 1570 1581 1583 1586 1587 1579 1576 1572 1568 1564 1560 1556 1551 1546 1542 1537 1532 1527 1523 1519 1516 1513 1510 1507 1504 1502 1500 1499 1499 1499 1499 1501 1502 1505
1556 1555 1556 1557 1556 1556 1556 1558 1562 1569 1576 1590 1590 1590 1591 1585 1581 1575 1569 1565 1561 1556 1551 1546 1541 1536 1532 1527 1523 1519 1515 1512 1509 1506 1503 1501 1499 1498 1497 1497 1497 1498 1499 1501
1562 1561 1559 1558 1559 1559 1561 1569 1580 1582 1593 1594 1589 1590 1591 1582 1578 1575 1571 1566 1562 1557 1552 1547 1541 1536 1532 1527 1523 1519 1515 1512 1509 1506 1503 1501 1499 1497 1495 1495 1495 1495 1496 1498
1569 1575 1565 1562 1564 1565 1568 1572 1585 1589 1595 1596 1590 1592 1588 1580 1577 1574 1571 1567 1562 1557 1553 1548 1542 1537 1533 1528 1524 1519 1516 1513 1509 1507 1504 1501 1499 1497 1495 1494 1493 1494 1495 1496
1571 1574 1565 1564 1563 1564 1568 1577 1577 1588 1593 1597 1594 1590 1584 1579 1576 1573 1570 1566 1562 1558 1554 1549 1544 1539 1534 1530 1525 1521 1517 1514 1511 1508 1505 1502 1500 1497 1495 1494 1493 1493 1494 1495
1563 1573 1569 1566 1565 1568 1571 1575 1582 1589 1596 1599 1595 1594 1593 1583 1578 1574 1570 1567 1563 1559 1555 1551 1546 1541 1537 1533 1528 1524 1519 1516 1513 1510 1507 1504 1502 1499 1497 1496 1495 1494 1495 1495
1561 1572 1575 1571 1574 1576 1574 1578 1586 1594 1595 1600 1601 1599 1585 1582 1578 1575 1572 1568 1565 1561 1557 1553 1549 1545 1540 1535 1531 1526 1522 1519 1515 1512 1510 1507 1504 1502 1500 1498 1497 1496 1496 1496
1563 1574 1581 1576 1572 1571 1573 1578 1583 1591 1598 1600 1602 1601 1579 1579 1576 1574 1572 1569 1566 1562 1559 1555 1551 1547 1542 1538 1533 1529 1525 1522 1518 1515 1512 1510 1507 1505 1503 1501 1500 1499 1499 1498
1563 1574 1585 1583 1582 1576 1576 1578 1582 1588 1596 1600 1601 1596 1578 1577 1575 1574 1572 1569 1566 1563 1560 1557 1553 1549 1545 1541 1537 1533 1529 1525 1521 1518 1515 1513 1510 1508 1506 1504 1503 1502 1501 1500
1560 1574 1581 1583 1583 1578 1578 1579 1581 1585 1594 1596 1594 1589 1581 1577 1576 1573 1571 1569 1567 1564 1561 1558 1555 1551 1548 1544 1540 1536 1532 1529 1525 1522 1519 1516 1513 1511 1509 1508 1506 1505 1504 1503
1561 1575 1575 1576 1574 1575 1576 1577 1579 1582 1586 1590 1587 1585 1580 1576 1575 1573 1571 1570 1567 1565 1562 1559 1556 1553 1550 1547 1543 1539 1536 1532 1529 1525 1522 1519 1517 1514 1512 1511 1509 1508 1506 1506
1564 1574 1575 1577 1575 1575 1577 1576 1577 1578 1581 1582 1582 1582 1575 1574 1574 1573 1571 1570 1568 1566 1563 1561 1558 1555 1552 1549 1546 1543 1539 1535 1532 1529 1526 1523 1520 1518 1516 1514 1512 1510 1509 1508
1568 1574 1581 1585 1579 1578 1581 1574 1575 1575 1575 1577 1581 1578 1573 1573 1573 1572 1571 1570 1568 1566 1564 1562 1559 1557 1554 1551 1549 1545 1542 1539 1535 1532 1529 1526 1523 1521 1519 1517 1515 1513 1512 1510
1568 1576 1585 1587 1584 1584 1576 1566 1568 1570 1570 1571 1571 1571 1571 1572 1572 1571 1570 1569 1568 1566 1564 1562 1560 1558 1555 1553 1551 1548 1545 1542 1539 1535 1532 1529 1527 1524 1522 1520 1518 1516 1515 1513
1564 1573 1584 1590 1587 1581 1569 1564 1565 1569 1569 1565 1567 1568 1569 1571 1571 1570 1570 1569 1568 1566 1565 1563 1561 1559 1557 1554 1552 1550 1547 1545 1542 1538 1535 1532 1530 1528 1525 1523 1521 1520 1518 1516
1567 1570 1581 1587 1582 1580 1566 1559 1560 1566 1569 1560 1562 1565 1567 1570 1574 1571 1569 1568 1568 1566 1565 1563 1561 1560 1558 1556 1554 1552 1549 1547 1544 1541 1538 1536 1533 1531 1528 1526 1524 1523 1521 1519
1570 1575 1580 1584 1582 1574 1558 1557 1561 1574 1566 1555 1557 1561 1564 1566 1568 1568 1568 1568 1567 1566 1565 1564 1562 1560 1558 1556 1555 1553 1551 1549 1546 1544 1541 1539 1536 1534 1532 1530 1528 1526 1524 1522
1568 1574 1578 1582 1580 1572 1552 1555 1559 1556 1551 1552 1555 1558 1561 1564 1566 1566 1567 1567 1567 1566 1565 1563 1562 1560 1559 1557 1555 1554 1552 1550 1548 1546 1544 1542 1539 1537 1535 1533 1531 1529 1527 1525
1560 1559 1561 1563 1558 1547 1546 1545 1547 1548 1549 1551 1553 1557 1560 1562 1564 1565 1566 1566 1566 1565 1564 1563 1562 1561 1559 1558 1556 1555 1553 1551 1550 1548 1546 1544 1542 1540 1538 1537 1535 1533 1531 1529
1551 1550 1552 1553 1544 1541 1541 1542 1544 1546 1548 1550 1552 1555 1558 1560 1562 1564 1565 1565 1565 1565 1564 1563 1561 1560 1559 1558 1557 1555 1554 1552 1551 1550 1548 1546 1545 1543 1542 1540 1538 1536 1534 1532
1542 1546 1548 1546 1539 1537 1536 1537 1540 1544 1546 1549 1551 1554 1557 1559 1561 1562 1563 1564 1564 1564 1563 1562 1561 1560 1559 1558 1557 1556 1554 1553 1552 1551 1549 1548 1547 1546 1544 1543 1541 1539 1537 1535
1534 1536 1540 1538 1530 1531 1531 1532 1537 1540 1543 1546 1549 1552 1555 1557 1559 1561 1562 1563 1563 1563 1562 1562 1561 1560 1559 1558 1557 1556 1554 1553 1552 1551 1550 1549 1548 1547 1546 1545 1544 1542 1540 1538